Weather History for KCQX - December, 2013

Change the Weather History Date:

Wednesday, December 25, 2013

  Actual Average Record
Temperature  
Mean Temperature 24 °F -  
Max Temperature 30 °F 39 °F 57 °F (2014)
Min Temperature 19 °F 26 °F 2 °F (1980)
Degree Days  
Heating Degree Days 40    
Moisture  
Dew Point 14 °F    
Average Humidity 66    
Maximum Humidity 78    
Minimum Humidity 49    
Precipitation  
Precipitation 0.00 in - - ()
Sea Level Pressure  
Sea Level Pressure 30.43 in    
Wind  
Wind Speed 8 mph (NW)    
Max Wind Speed 13 mph    
Max Gust Speed 25 mph    
Visibility 8 miles    
Events Snow    
Averages and records for this station are not official NWS values.
T = Trace of Precipitation, MM = Missing Value Source: NWS Daily Summary

Daily Weather History Graph

Daily Weather History Graph

Search for Another Location

Airport or City:

Trip Planner

Search our weather history database for the weather conditions in past years. The results will help you decide how hot, cold, wet, or windy it might be!

Date:

Astronomy

Dec. 25, 2013 Rise Set
Actual Time 7:05 AM EST 4:15 PM EST
Civil Twilight 6:33 AM EST 4:46 PM EST
Nautical Twilight 5:58 AM EST 5:21 PM EST
Astronomical Twilight 5:25 AM EST 5:55 PM EST
Moon No Moon Rise 11:21 AM EST (12/25)
Length of Visible Light 10h 12m
Length of Day
9h 09m
Waning Gibbous, 49% of the Moon is Illuminated
Dec 25
Waning Gibbous
Jan 1
New
Jan 7
First Quarter
Jan 15
Full
Jan 24
Last Quarter

Hourly Weather History & Observations

Time (EST) Temp. Windchill Dew Point Humidity Pressure Visibility Wind Dir Wind Speed Gust Speed Precip Events Conditions
12:52 AM 30.0 °F 21.1 °F 12.9 °F 49% 30.19 in 10.0 mi NW 10.4 mph - N/A   Partly Cloudy
1:52 AM 28.9 °F 20.4 °F 17.1 °F 61% 30.21 in 10.0 mi WNW 9.2 mph - N/A   Overcast
2:52 AM 28.9 °F 19.8 °F 17.1 °F 61% 30.24 in 10.0 mi West 10.4 mph 17.3 mph N/A   Overcast
3:52 AM 27.0 °F 18.0 °F 12.0 °F 53% 30.26 in 10.0 mi WNW 9.2 mph 20.7 mph N/A   Mostly Cloudy
4:52 AM 26.1 °F 19.4 °F 16.0 °F 66% 30.28 in 10.0 mi Variable 5.8 mph - N/A   Overcast
5:52 AM 25.0 °F 13.6 °F 10.9 °F 55% 30.31 in 10.0 mi NW 12.7 mph 20.7 mph N/A   Overcast
6:52 AM 24.1 °F 16.0 °F 12.0 °F 60% 30.35 in 7.0 mi NW 6.9 mph - 0.00 in Snow Light Snow
7:19 AM 23.0 °F 11.7 °F 10.9 °F 60% 30.36 in 10.0 mi NW 11.5 mph 25.3 mph 0.00 in   Overcast
7:52 AM 21.9 °F 12.5 °F 9.0 °F 58% 30.40 in 10.0 mi NW 8.1 mph 21.9 mph 0.00 in   Overcast
8:40 AM 21.0 °F 10.6 °F 10.0 °F 63% 30.41 in 8.0 mi NNW 9.2 mph 25.3 mph 0.00 in Snow Light Snow
8:52 AM 21.0 °F 9.3 °F 10.0 °F 63% 30.42 in 6.0 mi NNW 11.5 mph 25.3 mph 0.00 in Snow Light Snow
9:52 AM 19.9 °F 7.3 °F 9.0 °F 62% 30.44 in 10.0 mi North 12.7 mph 21.9 mph 0.00 in   Overcast
10:52 AM 21.0 °F 9.9 °F 10.0 °F 63% 30.45 in 5.0 mi NNW 10.4 mph 20.7 mph 0.00 in Snow Light Snow
11:12 AM 19.9 °F 9.3 °F 12.0 °F 71% 30.44 in 2.0 mi NNW 9.2 mph 19.6 mph 0.00 in Snow Light Snow
11:28 AM 21.0 °F 13.4 °F 12.0 °F 68% 30.44 in 6.0 mi Variable 5.8 mph - 0.00 in Snow Light Snow
11:52 AM 21.0 °F 12.4 °F 10.9 °F 65% 30.44 in 6.0 mi Variable 6.9 mph 18.4 mph 0.00 in Snow Light Snow
12:03 PM 21.9 °F 13.4 °F 12.9 °F 68% 30.43 in 1.8 mi Variable 6.9 mph - 0.00 in Snow Light Snow
12:16 PM 21.9 °F 12.5 °F 12.9 °F 68% 30.42 in 3.0 mi North 8.1 mph - 0.00 in Snow Light Snow
12:52 PM 21.9 °F 13.4 °F 12.9 °F 68% 30.45 in 7.0 mi Variable 6.9 mph - 0.00 in Snow Light Snow
1:52 PM 23.0 °F 13.9 °F 14.0 °F 68% 30.48 in 9.0 mi NW 8.1 mph - 0.00 in Snow Light Snow
2:52 PM 23.0 °F 13.9 °F 14.0 °F 68% 30.50 in 7.0 mi NNW 8.1 mph - 0.00 in Snow Light Snow
3:52 PM 23.0 °F 18.4 °F 15.1 °F 72% 30.52 in 9.0 mi Variable 3.5 mph - 0.00 in   Overcast
4:16 PM 23.0 °F 15.8 °F 14.0 °F 68% 30.51 in 10.0 mi NNW 5.8 mph - N/A   Overcast
4:25 PM 23.0 °F 18.4 °F 15.1 °F 72% 30.52 in 9.0 mi Variable 3.5 mph - 0.00 in   Overcast
4:52 PM 24.1 °F - 15.1 °F 69% 30.53 in 10.0 mi Calm Calm - 0.00 in   Overcast
5:52 PM 24.1 °F 19.7 °F 16.0 °F 71% 30.53 in 10.0 mi NNW 3.5 mph - N/A   Overcast
6:52 PM 25.0 °F - 17.1 °F 72% 30.55 in 10.0 mi Calm Calm - N/A   Overcast
7:52 PM 25.0 °F 20.7 °F 17.1 °F 72% 30.55 in 10.0 mi WNW 3.5 mph - N/A   Overcast
8:52 PM 24.1 °F 19.7 °F 17.1 °F 75% 30.54 in 10.0 mi WNW 3.5 mph - N/A   Overcast
9:52 PM 24.1 °F - 18.0 °F 77% 30.53 in 10.0 mi Calm Calm - N/A   Overcast
10:52 PM 24.1 °F - 18.0 °F 77% 30.52 in 10.0 mi Calm Calm - N/A   Overcast
11:52 PM 23.0 °F 18.4 °F 17.1 °F 78% 30.52 in 10.0 mi WNW 3.5 mph - N/A   Mostly Cloudy